| time (UTC) | temp F | wind direction | speed MPH | gust MPH | rain 1hr in | rain 24hr in | rain mn in | humidity % | barometer mb |
| 20260906090044 | 65 | 0 | 0.0 | 0.0 | 0.00 | 0.00 | 0.00 | 87 | 1018.9 |
| 20260906084547 | 65 | 0 | 0.0 | 0.0 | 0.00 | 0.00 | 0.00 | 87 | 1018.9 |
| 20260906083043 | 65 | 0 | 0.0 | 0.0 | 0.00 | 0.00 | 0.00 | 87 | 1018.8 |
| 20260906081543 | 65 | 0 | 0.0 | 0.0 | 0.00 | 0.00 | 0.00 | 87 | 1018.7 |
| 20260906080203 | 65 | 0 | 0.0 | 0.0 | 0.00 | 0.00 | 0.00 | 87 | 1018.8 |
| 20260906074551 | 65 | 0 | 0.0 | 0.0 | 0.00 | 0.00 | 0.00 | 87 | 1018.6 |
| 20260906073044 | 65 | 0 | 0.0 | 0.0 | 0.00 | 0.00 | 0.00 | 87 | 1018.5 |
| 20260906071543 | 65 | 0 | 0.0 | 0.0 | 0.00 | 0.00 | 0.00 | 87 | 1018.6 |
| 20260906070047 | 65 | 0 | 0.0 | 0.0 | 0.00 | 0.00 | 0.00 | 87 | 1018.6 |
| 20260906064543 | 65 | 0 | 0.0 | 0.0 | 0.00 | 0.00 | 0.00 | 87 | 1018.6 |
| 20260906063046 | 65 | 0 | 0.0 | 1.0 | 0.00 | 0.00 | 0.00 | 86 | 1018.8 |
| 20260906061542 | 65 | 0 | 0.0 | 0.0 | 0.00 | 0.00 | 0.00 | 86 | 1018.6 |
| 20260906060047 | 65 | 0 | 0.0 | 0.0 | 0.00 | 0.00 | 0.00 | 86 | 1018.6 |
| 20260906054600 | 65 | 0 | 0.0 | 0.0 | 0.00 | 0.00 | 0.00 | 87 | 1018.6 |
| 20260906053048 | 65 | 0 | 0.0 | 0.0 | 0.00 | 0.00 | 0.00 | 87 | 1018.6 |
| 20260906051544 | 65 | 0 | 0.0 | 1.0 | 0.00 | 0.00 | 0.00 | 87 | 1018.4 |
| 20260906050045 | 65 | 0 | 0.0 | 1.0 | 0.00 | 0.00 | 0.00 | 88 | 1018.3 |
| 20260906044549 | 66 | 0 | 0.0 | 1.0 | 0.00 | 0.00 | 0.00 | 88 | 1018.3 |
| 20260906043045 | 66 | 32 | 0.0 | 3.0 | 0.00 | 0.00 | 0.00 | 88 | 1018.1 |
| 20260906041542 | 66 | 0 | 0.0 | 3.0 | 0.00 | 0.00 | 0.00 | 88 | 1017.9 |
| 20260906034552 | 67 | 61 | 1.0 | 5.0 | 0.00 | 0.00 | 0.00 | 88 | 1018.0 |
| 20260906033045 | 67 | 50 | 1.0 | 7.0 | 0.00 | 0.00 | 0.00 | 88 | 1018.0 |
| 20260906031605 | 67 | 51 | 3.0 | 6.0 | 0.00 | 0.00 | 0.00 | 88 | 1018.0 |
| 20260906030050 | 68 | 62 | 2.0 | 5.0 | 0.00 | 0.00 | 0.00 | 87 | 1018.0 |
| 20260906024557 | 68 | 53 | 2.0 | 7.0 | 0.00 | 0.00 | 0.00 | 87 | 1017.9 |
| 20260906023045 | 68 | 48 | 3.0 | 8.0 | 0.00 | 0.00 | 0.00 | 86 | 1017.7 |
| 20260906021550 | 68 | 49 | 2.0 | 5.0 | 0.00 | 0.00 | 0.00 | 86 | 1017.7 |
| 20260906020047 | 68 | 16 | 3.0 | 8.0 | 0.00 | 0.00 | 0.00 | 86 | 1017.7 |
| 20260906014543 | 69 | 31 | 2.0 | 5.0 | 0.00 | 0.00 | 0.00 | 85 | 1017.9 |
| 20260906013041 | 69 | 34 | 1.0 | 5.0 | 0.00 | 0.00 | 0.00 | 85 | 1017.7 |
| 20260906011542 | 69 | 23 | 2.0 | 5.0 | 0.00 | 0.00 | 0.00 | 85 | 1017.7 |
| 20260906010052 | 69 | 36 | 2.0 | 6.0 | 0.00 | 0.00 | 0.00 | 84 | 1017.7 |
| 20260906004544 | 70 | 48 | 3.0 | 6.0 | 0.00 | 0.00 | 0.00 | 84 | 1017.5 |
| 20260906003045 | 70 | 37 | 4.0 | 8.0 | 0.00 | 0.00 | 0.00 | 85 | 1017.5 |
| 20260906001551 | 70 | 20 | 3.0 | 8.0 | 0.00 | 0.00 | 0.00 | 85 | 1017.5 |
| 20260906000055 | 70 | 21 | 3.0 | 8.0 | 0.00 | 0.00 | 0.00 | 86 | 1017.6 |
| 20260905234550 | 70 | 37 | 3.0 | 9.0 | 0.00 | 0.00 | 0.00 | 86 | 1017.6 |
| 20260905233042 | 70 | 339 | 3.0 | 8.0 | 0.00 | 0.00 | 0.00 | 87 | 1017.6 |
| 20260905231542 | 70 | 49 | 5.0 | 11.0 | 0.00 | 0.00 | 0.00 | 88 | 1017.6 |
| 20260905230047 | 70 | 18 | 5.0 | 10.0 | 0.00 | 0.00 | 0.00 | 87 | 1017.6 |
| 20260905224543 | 70 | 57 | 3.0 | 12.0 | 0.00 | 0.00 | 0.00 | 87 | 1017.7 |
| 20260905223042 | 71 | 28 | 5.0 | 10.0 | 0.00 | 0.00 | 0.00 | 86 | 1017.4 |
| 20260905221543 | 71 | 37 | 3.0 | 13.0 | 0.00 | 0.00 | 0.00 | 86 | 1017.2 |
| 20260905220045 | 71 | 39 | 4.0 | 10.0 | 0.00 | 0.00 | 0.00 | 86 | 1017.2 |
| 20260905214543 | 71 | 40 | 5.0 | 14.0 | 0.00 | 0.00 | 0.00 | 85 | 1017.0 |
| 20260905213053 | 71 | 53 | 5.0 | 11.0 | 0.00 | 0.00 | 0.00 | 85 | 1016.7 |
| 20260905211600 | 72 | 27 | 7.0 | 12.0 | 0.00 | 0.00 | 0.00 | 85 | 1016.9 |
| 20260905210053 | 72 | 86 | 6.0 | 11.0 | 0.00 | 0.00 | 0.00 | 84 | 1016.7 |
| 20260905204550 | 73 | 351 | 6.0 | 13.0 | 0.00 | 0.00 | 0.00 | 83 | 1016.7 |
| 20260905203042 | 74 | 47 | 7.0 | 13.0 | 0.00 | 0.00 | 0.00 | 82 | 1016.6 |
| 20260905201550 | 75 | 49 | 6.0 | 15.0 | 0.00 | 0.00 | 0.00 | 82 | 1016.7 |
| 20260905200042 | 75 | 29 | 6.0 | 13.0 | 0.00 | 0.00 | 0.00 | 82 | 1016.6 |
| 20260905194546 | 75 | 27 | 6.0 | 10.0 | 0.00 | 0.00 | 0.00 | 83 | 1016.7 |
| 20260905193041 | 74 | 30 | 5.0 | 11.0 | 0.00 | 0.00 | 0.00 | 84 | 1016.6 |
| 20260905191541 | 75 | 59 | 4.0 | 10.0 | 0.00 | 0.00 | 0.00 | 84 | 1016.7 |
| 20260905190041 | 76 | 74 | 5.0 | 14.0 | 0.00 | 0.00 | 0.00 | 82 | 1016.6 |
| 20260905184548 | 77 | 80 | 6.0 | 13.0 | 0.00 | 0.00 | 0.00 | 82 | 1016.7 |
| 20260905183045 | 77 | 65 | 6.0 | 13.0 | 0.00 | 0.00 | 0.00 | 81 | 1016.5 |
| 20260905181544 | 77 | 6 | 4.0 | 10.0 | 0.00 | 0.00 | 0.00 | 82 | 1016.6 |
| 20260905180047 | 77 | 48 | 4.0 | 8.0 | 0.00 | 0.00 | 0.00 | 82 | 1016.5 |
| 20260905174552 | 77 | 58 | 3.0 | 8.0 | 0.00 | 0.00 | 0.00 | 82 | 1016.4 |
| 20260905173057 | 77 | 41 | 4.0 | 9.0 | 0.00 | 0.00 | 0.00 | 81 | 1016.5 |
| 20260905171550 | 76 | 34 | 2.0 | 5.0 | 0.00 | 0.00 | 0.00 | 82 | 1016.6 |
| 20260905170048 | 76 | 60 | 2.0 | 7.0 | 0.00 | 0.00 | 0.00 | 81 | 1016.6 |
| 20260905164542 | 76 | 68 | 3.0 | 6.0 | 0.00 | 0.01 | 0.00 | 81 | 1016.8 |
| 20260905163050 | 76 | 62 | 3.0 | 6.0 | 0.00 | 0.01 | 0.00 | 82 | 1016.6 |
| 20260905161547 | 76 | 63 | 4.0 | 9.0 | 0.00 | 0.01 | 0.00 | 82 | 1016.8 |
| 20260905160045 | 74 | 5 | 3.0 | 8.0 | 0.00 | 0.01 | 0.00 | 85 | 1016.8 |
| 20260905154540 | 74 | 34 | 4.0 | 10.0 | 0.00 | 0.16 | 0.00 | 86 | 1016.7 |
| 20260905153047 | 74 | 37 | 3.0 | 9.0 | 0.00 | 0.16 | 0.00 | 86 | 1016.6 |
| 20260905151549 | 74 | 54 | 4.0 | 10.0 | 0.00 | 0.16 | 0.00 | 85 | 1016.5 |
| 20260905150043 | 74 | 0 | 0.0 | 7.0 | 0.00 | 0.16 | 0.00 | 86 | 1016.4 |
| 20260905144543 | 73 | 60 | 4.0 | 10.0 | 0.00 | 0.26 | 0.00 | 86 | 1016.3 |
| 20260905143048 | 72 | 39 | 3.0 | 8.0 | 0.00 | 0.26 | 0.00 | 86 | 1016.0 |
| 20260905141546 | 71 | 41 | 3.0 | 9.0 | 0.00 | 0.26 | 0.00 | 85 | 1015.9 |
| 20260905140046 | 71 | 354 | 3.0 | 8.0 | 0.00 | 0.26 | 0.00 | 84 | 1015.9 |
| 20260905134558 | 71 | 30 | 4.0 | 10.0 | 0.00 | 0.27 | 0.00 | 84 | 1015.9 |
| 20260905133054 | 71 | 8 | 2.0 | 8.0 | 0.00 | 0.27 | 0.00 | 83 | 1016.0 |
| 20260905131547 | 71 | 44 | 1.0 | 5.0 | 0.00 | 0.27 | 0.00 | 82 | 1016.3 |
| 20260905130044 | 70 | 81 | 0.0 | 7.0 | 0.00 | 0.27 | 0.00 | 82 | 1015.6 |
| 20260905124549 | 70 | 24 | 3.0 | 8.0 | 0.00 | 0.27 | 0.00 | 83 | 1015.6 |
| 20260905123048 | 70 | 70 | 2.0 | 5.0 | 0.00 | 0.27 | 0.00 | 83 | 1015.4 |
| 20260905121542 | 70 | 72 | 1.0 | 5.0 | 0.00 | 0.27 | 0.00 | 83 | 1015.1 |
| 20260905120050 | 69 | 30 | 1.0 | 4.0 | 0.00 | 0.27 | 0.00 | 83 | 1015.1 |
| 20260905114545 | 69 | 45 | 2.0 | 8.0 | 0.00 | 0.27 | 0.00 | 83 | 1014.9 |
| 20260905113042 | 69 | 28 | 2.0 | 8.0 | 0.00 | 0.27 | 0.00 | 83 | 1014.8 |
| 20260905111548 | 69 | 53 | 4.0 | 11.0 | 0.00 | 0.27 | 0.00 | 84 | 1014.7 |
| 20260905110104 | 69 | 58 | 5.0 | 9.0 | 0.00 | 0.27 | 0.00 | 84 | 1014.4 |
| 20260905104556 | 70 | 34 | 3.0 | 8.0 | 0.00 | 0.27 | 0.00 | 84 | 1014.3 |
| 20260905103051 | 70 | 72 | 2.0 | 7.0 | 0.00 | 0.27 | 0.00 | 84 | 1014.5 |
| 20260905101551 | 70 | 64 | 3.0 | 8.0 | 0.00 | 0.27 | 0.00 | 84 | 1014.3 |
| 20260905100045 | 70 | 7 | 3.0 | 8.0 | 0.00 | 0.27 | 0.00 | 84 | 1014.3 |
| 20260905094542 | 70 | 58 | 0.0 | 3.0 | 0.00 | 0.28 | 0.00 | 84 | 1014.0 |
| 20260905093044 | 70 | 0 | 0.0 | 2.0 | 0.00 | 0.28 | 0.00 | 84 | 1014.1 |
| 20260905091601 | 70 | 0 | 0.0 | 3.0 | 0.00 | 0.28 | 0.00 | 84 | 1014.0 |